• In Hungary
  • List of Countries
  • For 7 days
  • Water Temperature
  • Satellite Maps
  • Weather Map
  • News
  • Weather Widgets
  • user-avatar
    Login

    Hourly Weather Elenka

    Today, 21 June, Thursday

    Time Temperature Precipitation Wind Pressure Humidity
    00:00 +15°C° 0 mm 2 mps 744 mmHg 92%
    01:00 +14°C° 0 mm 2 mps 745 mmHg 93%
    02:00 +14°C° 0 mm 2 mps 745 mmHg 94%
    03:00 +14°C° 0 mm 2 mps 745 mmHg 92%
    04:00 +14°C° 0 mm 2 mps 745 mmHg 90%
    05:00 +15°C° 0 mm 2 mps 745 mmHg 88%
    06:00 +17°C° 0 mm 2 mps 745 mmHg 81%
    07:00 +18°C° 0 mm 3 mps 745 mmHg 73%
    08:00 +20°C° 0 mm 3 mps 745 mmHg 65%
    09:00 +21°C° 0 mm 3 mps 745 mmHg 62%
    10:00 +22°C° 0 mm 3 mps 745 mmHg 58%
    11:00 +25°C° 0 mm 3 mps 745 mmHg 54%
    12:00 +25°C° 0 mm 3 mps 745 mmHg 53%
    13:00 +26°C° 0 mm 3 mps 745 mmHg 53%
    14:00 +27°C° 0 mm 3 mps 744 mmHg 52%
    15:00 +26°C° 0 mm 3 mps 744 mmHg 55%
    16:00 +26°C° 0 mm 3 mps 744 mmHg 59%
    17:00 +26°C° 0 mm 2 mps 744 mmHg 62%
    18:00 +24°C° 0 mm 2 mps 744 mmHg 68%
    19:00 +21°C° 0 mm 2 mps 744 mmHg 74%
    20:00 +21°C° 0 mm 1 mps 743 mmHg 81%
    21:00 +19°C° 0 mm 2 mps 743 mmHg 84%
    22:00 +18°C° 0 mm 2 mps 743 mmHg 86%
    23:00 +17°C° 0 mm 2 mps 743 mmHg 89%

    Tomorrow, 22 June, Friday

    Time Temperature Precipitation Wind Pressure Humidity
    00:00 +17°C° 0 mm 2 mps 743 mmHg 90%
    01:00 +17°C° 0 mm 2 mps 743 mmHg 91%
    02:00 +16°C° 0 mm 2 mps 743 mmHg 93%
    03:00 +17°C° 0 mm 3 mps 743 mmHg 91%
    04:00 +18°C° 0 mm 3 mps 742 mmHg 90%
    05:00 +18°C° 0 mm 3 mps 742 mmHg 88%
    06:00 +20°C° 0 mm 4 mps 742 mmHg 83%
    07:00 +22°C° 0 mm 4 mps 742 mmHg 78%
    08:00 +25°C° 0 mm 5 mps 742 mmHg 72%
    09:00 +26°C° 0.1 mm 5 mps 741 mmHg 69%
    10:00 +27°C° 0.1 mm 5 mps 741 mmHg 65%
    11:00 +28°C° 0.1 mm 6 mps 741 mmHg 61%
    12:00 +28°C° 0.2 mm 6 mps 741 mmHg 62%
    13:00 +28°C° 0.2 mm 6 mps 741 mmHg 63%
    14:00 +28°C° 0.2 mm 6 mps 740 mmHg 63%
    15:00 +28°C° 0.4 mm 5 mps 740 mmHg 69%
    16:00 +27°C° 0.4 mm 4 mps 740 mmHg 74%
    17:00 +27°C° 0.4 mm 3 mps 740 mmHg 80%
    18:00 +25°C° 0.3 mm 3 mps 740 mmHg 84%
    19:00 +23°C° 0.3 mm 2 mps 741 mmHg 88%
    20:00 +21°C° 0.3 mm 2 mps 741 mmHg 92%
    21:00 +20°C° 0.2 mm 2 mps 741 mmHg 93%
    22:00 +19°C° 0.2 mm 2 mps 741 mmHg 94%
    23:00 +18°C° 0.2 mm 2 mps 741 mmHg 96%

    Day after tomorrow, 23 June, Saturday

    Time Temperature Precipitation Wind Pressure Humidity
    00:00 +17°C° 0.1 mm 2 mps 741 mmHg 96%
    01:00 +17°C° 0.1 mm 2 mps 741 mmHg 96%
    02:00 +16°C° 0.1 mm 2 mps 741 mmHg 96%
    03:00 +16°C° 0.6 mm 2 mps 741 mmHg 96%
    04:00 +16°C° 0.6 mm 2 mps 741 mmHg 96%
    05:00 +16°C° 0.6 mm 2 mps 740 mmHg 96%
    06:00 +17°C° 0.9 mm 3 mps 740 mmHg 95%
    07:00 +18°C° 0.9 mm 3 mps 740 mmHg 94%
    08:00 +19°C° 0.9 mm 3 mps 740 mmHg 92%
    09:00 +20°C° 0.9 mm 3 mps 739 mmHg 91%
    10:00 +20°C° 0.9 mm 3 mps 739 mmHg 90%
    11:00 +21°C° 0.9 mm 4 mps 738 mmHg 88%
    12:00 +21°C° 0.7 mm 4 mps 738 mmHg 87%
    13:00 +22°C° 0.7 mm 5 mps 738 mmHg 86%
    14:00 +23°C° 0.7 mm 5 mps 738 mmHg 85%
    15:00 +21°C° 1.1 mm 5 mps 738 mmHg 88%
    16:00 +19°C° 1.1 mm 4 mps 738 mmHg 91%
    17:00 +17°C° 1.1 mm 4 mps 738 mmHg 94%
    18:00 +15°C° 0.4 mm 4 mps 739 mmHg 95%
    19:00 +13°C° 0.4 mm 4 mps 739 mmHg 95%
    20:00 +12°C° 0.4 mm 4 mps 739 mmHg 96%
    21:00 +11°C° 0.2 mm 4 mps 739 mmHg 96%
    22:00 +11°C° 0.2 mm 3 mps 740 mmHg 96%
    23:00 +10°C° 0.2 mm 3 mps 740 mmHg 96%

    24 June, Sunday

    Time Temperature Precipitation Wind Pressure Humidity
    00:00 +10°C° 0.2 mm 3 mps 740 mmHg 96%
    01:00 +10°C° 0.2 mm 3 mps 740 mmHg 96%
    02:00 +10°C° 0.2 mm 3 mps 740 mmHg 96%
    03:00 +10°C° 0.5 mm 3 mps 740 mmHg 96%
    04:00 +10°C° 0.5 mm 3 mps 741 mmHg 96%
    05:00 +10°C° 0.5 mm 4 mps 741 mmHg 95%
    06:00 +11°C° 0.1 mm 4 mps 741 mmHg 91%
    07:00 +13°C° 0.1 mm 4 mps 742 mmHg 86%
    08:00 +14°C° 0.1 mm 4 mps 742 mmHg 81%
    09:00 +17°C° 0 mm 4 mps 742 mmHg 73%
    10:00 +18°C° 0 mm 4 mps 743 mmHg 65%
    11:00 +20°C° 0 mm 4 mps 743 mmHg 57%
    12:00 +21°C° 0 mm 4 mps 743 mmHg 55%
    13:00 +21°C° 0 mm 4 mps 743 mmHg 53%
    14:00 +22°C° 0 mm 4 mps 743 mmHg 51%
    15:00 +21°C° 0 mm 3 mps 744 mmHg 55%
    16:00 +21°C° 0 mm 3 mps 744 mmHg 60%
    17:00 +20°C° 0 mm 3 mps 744 mmHg 64%
    18:00 +19°C° 0 mm 3 mps 744 mmHg 70%
    19:00 +17°C° 0 mm 2 mps 745 mmHg 77%
    20:00 +15°C° 0 mm 2 mps 745 mmHg 83%
    21:00 +14°C° 0 mm 2 mps 745 mmHg 86%
    22:00 +13°C° 0 mm 2 mps 746 mmHg 89%
    23:00 +12°C° 0 mm 2 mps 746 mmHg 92%

    25 June, Monday

    Time Temperature Precipitation Wind Pressure Humidity
    00:00 +12°C° 0 mm 2 mps 746 mmHg 93%
    01:00 +10°C° 0 mm 2 mps 746 mmHg 94%
    02:00 +10°C° 0 mm 2 mps 746 mmHg 95%
    03:00 +10°C° 0 mm 2 mps 747 mmHg 93%
    04:00 +12°C° 0 mm 2 mps 747 mmHg 92%
    05:00 +12°C° 0 mm 2 mps 747 mmHg 91%
    06:00 +14°C° 0 mm 2 mps 747 mmHg 84%
    07:00 +16°C° 0 mm 2 mps 747 mmHg 76%
    08:00 +18°C° 0 mm 3 mps 748 mmHg 69%
    09:00 +19°C° 0 mm 3 mps 748 mmHg 65%
    10:00 +20°C° 0 mm 3 mps 748 mmHg 61%
    11:00 +21°C° 0 mm 3 mps 748 mmHg 57%
    12:00 +21°C° 0.2 mm 4 mps 748 mmHg 58%
    13:00 +21°C° 0.2 mm 4 mps 748 mmHg 59%
    14:00 +21°C° 0.2 mm 4 mps 748 mmHg 60%
    15:00 +21°C° 0.1 mm 4 mps 748 mmHg 62%
    16:00 +21°C° 0.1 mm 3 mps 748 mmHg 64%
    17:00 +21°C° 0.1 mm 3 mps 748 mmHg 65%
    18:00 +19°C° 0 mm 3 mps 748 mmHg 71%
    19:00 +17°C° 0 mm 2 mps 748 mmHg 77%
    20:00 +15°C° 0 mm 2 mps 748 mmHg 83%
    21:00 +15°C° 0 mm 2 mps 748 mmHg 85%
    22:00 +14°C° 0 mm 2 mps 748 mmHg 88%
    23:00 +13°C° 0 mm 2 mps 749 mmHg 90%

    26 June, Tuesday

    Time Temperature Precipitation Wind Pressure Humidity
    00:00 +12°C° 0 mm 2 mps 749 mmHg 91%
    01:00 +12°C° 0 mm 2 mps 749 mmHg 91%
    02:00 +12°C° 0 mm 1 mps 749 mmHg 92%
    03:00 +12°C° 0 mm 1 mps 749 mmHg 91%
    04:00 +12°C° 0 mm 1 mps 749 mmHg 90%
    05:00 +13°C° 0 mm 1 mps 749 mmHg 89%
    06:00 +15°C° 0 mm 1 mps 749 mmHg 82%
    07:00 +17°C° 0 mm 2 mps 749 mmHg 75%
    08:00 +19°C° 0 mm 2 mps 749 mmHg 68%
    09:00 +20°C° 0.1 mm 2 mps 749 mmHg 63%
    10:00 +21°C° 0.1 mm 2 mps 749 mmHg 58%
    11:00 +23°C° 0.1 mm 2 mps 749 mmHg 53%
    12:00 +23°C° 0.1 mm 2 mps 748 mmHg 54%
    13:00 +23°C° 0.1 mm 2 mps 748 mmHg 54%
    14:00 +22°C° 0.1 mm 3 mps 748 mmHg 55%
    15:00 +23°C° 0.1 mm 2 mps 748 mmHg 59%
    16:00 +21°C° 0.1 mm 2 mps 748 mmHg 63%
    17:00 +21°C° 0.1 mm 2 mps 748 mmHg 66%
    18:00 +19°C° 0.1 mm 2 mps 748 mmHg 73%
    19:00 +18°C° 0.1 mm 1 mps 748 mmHg 80%
    20:00 +15°C° 0.1 mm 1 mps 748 mmHg 86%
    21:00 +15°C° 0 mm 1 mps 748 mmHg 88%
    22:00 +14°C° 0 mm 1 mps 748 mmHg 89%
    23:00 +13°C° 0 mm 1 mps 748 mmHg 91%
    Show more